Flag for Venezuela Weather past 2 weeks in Maracay, Venezuela

Now
88 °F

Scattered clouds.


Feels Like: 96 °F
Forecast: N/A
Wind: 8 mph from Northwest

Location: Maracay-B. A. Sucre

Current Time: Dec 19, 2014 at 5:40:09 PM

Latest Report: Dec 19, 2014 at 3:30 PM


Visibility: N/A

Pressure: 29.89 "Hg

Humidity: 62%

Dew point: 73 °F

Location of MaracayLocation

Historic Weather in Maracay — Graph

°F

Maracay temperature yesterday

Maximum temperature yesterday: 90 °F (at 1:30 PM)
Minimum temperature yesterday: 72 °F (at 6:30 AM)
Average temperature yesterday: 81 °F

Past Weeks' High & Low Weather Summary

 TemperatureHumidityPressure
High91 °F (Dec 5, 2:30 PM)100% (Dec 4, 9:30 PM)30.09 "Hg (Dec 4, 9:30 PM)
Low68 °F (Dec 12, 6:30 AM)38% (Dec 13, 3:30 PM)29.86 "Hg (Dec 4, 3:30 PM)
Average81 °F71%29.95 "Hg
* Reported Dec 4 3:30 PM — Dec 19 3:30 PM, Maracay, Weather by CustomWeather, © 2014

Note: Actual official high and low records may vary slightly from our data, if they occured in-between our weather recording intervals... More about our weather records

Advertising

Maracay weather history for previous 24 hours

 ConditionsComfort  
Time TempWeatherWind HumidityBarometerVisibility
3:30 PM
Dec 19
88 °FScattered clouds.8 mph62%29.89 "HgN/A
2:30 PM90 °FScattered clouds.8 mph49%29.89 "HgN/A
1:30 PM88 °FScattered clouds.7 mph55%29.92 "HgN/A
12:30 PM88 °FScattered clouds.8 mph52%29.95 "HgN/A
11:30 AM88 °FPassing clouds.6 mph52%30.01 "HgN/A
10:30 AM82 °FPassing clouds.6 mph62%30.04 "HgN/A
9:30 AM79 °FSunny.5 mph70%30.01 "Hg10 mi
8:30 AM77 °FSunny.2 mph74%30.01 "Hg10 mi
7:30 AM68 °FSunny.2 mph94%30.01 "Hg10 mi
6:30 AM70 °FSunny.No wind100%30.01 "Hg10 mi
4:30 AM72 °FClear.3 mph94%29.95 "Hg10 mi
10:30 PM
Dec 18
75 °FPassing clouds.No wind83%30.01 "HgN/A
9:30 PM77 °FPassing clouds.5 mph74%29.98 "HgN/A
8:30 PM77 °FPassing clouds.5 mph79%29.98 "HgN/A
7:30 PM79 °FPassing clouds.2 mph70%29.95 "HgN/A
6:30 PM81 °FPassing clouds.8 mph66%29.92 "HgN/A
5:30 PM86 °FPassing clouds.9 mph59%29.89 "HgN/A
Weather by CustomWeather, © 2014

See weather overviewHow to use our weather pages